Home   Weather   Penang   Past weeks
Flag for Malaysia

Past Weather in Penang, Penang, Malaysia — Yesterday and Last 2 Weeks

Now
79 °F

Partly cloudy.


Feels Like: 82 °F
Forecast: 89 / 75 °F
Wind: 2 mph from North

Location: Butterworth Air Base

Current Time: Aug 22, 2019 at 12:33:44 am

Latest Report: Aug 22, 2019 at 12:00 am


Visibility: 5 mi

Pressure: 29.86 "Hg

Humidity: 89%

Dew Point: 75 °F

Location of PenangLocation

Past Weather in Penang — Graph

°F

Penang Temperature Yesterday

Maximum temperature yesterday: 86 °F (at 5:00 pm)
Minimum temperature yesterday: 75 °F (at 5:00 am)
Average temperature yesterday: 81 °F

High & Low Weather Summary for the Past Weeks

 TemperatureHumidityPressure
High93 °F (Aug 13, 4:00 pm)100% (Aug 7, 5:00 am)29.95 "Hg (Aug 7, 5:00 am)
Low73 °F (Aug 10, 1:00 am)52% (Aug 7, 3:00 pm)29.68 "Hg (Aug 7, 6:00 pm)
Average83 °F83%29.80 "Hg
* Reported Aug 6 11:00 pm — Aug 21 11:00 pm, Penang. Weather by CustomWeather, © 2019

Note: Actual official high and low records may vary slightly from our data, if they occured in-between our weather recording intervals... More about our weather records

Advertising

Penang Weather History for the Previous 24 Hours

Scroll right to see more
 ConditionsComfort  
Time TempWeatherWind HumidityBarometerVisibility
11:00 pm
Wed, Aug 21
81 °FPartly cloudy.No wind84%29.86 "Hg6 mi
10:00 pm82 °FPartly cloudy.No wind79%29.86 "Hg5 mi
9:00 pm82 °FPartly cloudy.5 mph79%29.83 "Hg5 mi
8:00 pm82 °FPartly cloudy.3 mph74%29.80 "Hg6 mi
7:00 pm84 °FBroken clouds.7 mph70%29.80 "Hg6 mi
6:00 pm86 °FBroken clouds.7 mph66%29.77 "Hg6 mi
5:00 pm86 °FBroken clouds.7 mph66%29.77 "Hg5 mi
4:00 pm84 °FBroken clouds.6 mph79%29.80 "Hg5 mi
3:00 pm84 °FBroken clouds.6 mph74%29.80 "Hg5 mi
2:00 pm82 °FBroken clouds.8 mph79%29.83 "Hg5 mi
1:00 pm84 °FBroken clouds.10 mph79%29.83 "Hg5 mi
12:00 pm84 °FBroken clouds.10 mph79%29.86 "Hg5 mi
11:00 am82 °FBroken clouds.No wind84%29.86 "Hg4 mi
10:00 am79 °FLight rain. Broken clouds.2 mph94%29.89 "Hg4 mi
9:00 am77 °FLight rain. Broken clouds.3 mph100%29.86 "Hg4 mi
8:00 am75 °FLight rain. Broken clouds.3 mph100%29.83 "Hg4 mi
7:00 am75 °FThunderstorms. Partly cloudy.3 mph100%29.83 "Hg4 mi
6:00 am75 °FThunderstorms. Partly cloudy.5 mph100%29.83 "Hg4 mi
5:00 am75 °FThunderstorms. Partly cloudy.10 mph100%29.80 "Hg4 mi
4:00 am77 °FThunderstorms. Partly cloudy.2 mph94%29.77 "Hg4 mi
3:00 am79 °FThunderstorms. Partly cloudy.6 mph89%29.80 "Hg4 mi
2:00 am81 °FThunderstorms. Partly cloudy.3 mph94%29.80 "Hg4 mi
1:00 am82 °FPartly cloudy.3 mph89%29.80 "Hg4 mi
12:00 am82 °FPartly cloudy.5 mph89%29.83 "Hg4 mi
Weather by CustomWeather, © 2019

See weather overview